Lid_Strength_Index
5 5 5 8 10 7 10 10 12 11 10 9 7 7 6 6 6 6 4 3 3 2 2 2 1 1 1 1 0 0 0 -0
6 5 5 6 6 10 10 14 15 12 11 12 11 8 7 7 6 6 5 4 3 2 2 1 2 1 1 0 1 0 -0 -0
6 7 8 7 8 7 8 9 13 14 12 8 9 8 7 6 6 5 5 4 3 2 2 1 1 2 1 1 1 0 -0 -0
8 6 5 6 7 7 10 11 10 11 14 8 7 7 6 6 5 4 4 3 3 3 2 2 2 2 2 1 1 0 -0 -0
10 7 6 7 6 6 7 7 10 11 11 7 7 7 6 7 6 5 4 4 4 3 4 3 2 2 2 1 1 0 0 0
11 9 7 8 7 7 7 10 9 9 10 10 8 8 8 7 6 6 5 4 4 4 4 3 2 2 2 1 1 1 0 0
8 8 7 8 8 7 8 7 9 8 8 8 8 7 7 6 6 6 6 5 4 4 3 3 3 2 2 1 1 1 0 1
9 8 8 9 8 7 8 7 7 7 9 7 6 6 7 7 7 7 6 5 5 4 3 3 3 3 2 2 2 1 1 1
11 8 8 11 10 9 9 8 8 8 8 7 8 8 7 7 6 6 6 5 5 5 5 4 3 2 2 2 1 1 1 1
11 10 14 9 7 7 9 8 7 7 7 7 7 7 6 5 6 6 5 5 5 6 6 6 5 4 3 3 2 1 1 1
12 12 11 9 8 8 9 9 7 8 7 7 6 6 7 5 4 4 4 5 5 6 6 6 6 5 5 4 4 3 3 2
10 13 15 10 7 6 6 11 6 7 7 7 7 10 8 4 4 4 5 6 6 5 7 7 7 6 6 6 5 4 4 2
9 11 10 7 6 5 12 11 5 6 6 6 8 6 5 4 5 5 5 5 5 6 6 7 7 7 7 7 7 5 4 3
9 11 13 5 6 9 7 5 4 5 5 5 6 5 4 4 4 4 5 6 6 6 6 6 5 6 6 6 5 5 4 4
9 10 6 4 5 4 4 5 4 4 4 4 5 5 4 4 3 3 3 3 3 5 4 4 4 4 5 5 4 4 3 4
8 7 6 5 4 3 3 4 4 3 4 4 4 4 4 3 3 3 3 4 4 4 4 5 4 4 3 4 3 3 4 4
8 6 5 5 4 4 3 3 3 3 3 3 4 4 3 3 3 3 4 4 3 4 4 4 5 4 4 4 4 4 4 4
7 5 5 5 4 3 3 3 3 3 4 3 3 3 3 3 3 4 4 4 4 4 4 5 5 5 5 4 4 4 5 5
5 3 4 4 3 3 3 3 3 3 3 3 3 3 3 3 4 5 5 5 5 4 4 4 5 5 5 5 5 5 5 6